FENGYUN 1C DEB, 30154

Orbit data source: Space-Track

FENGYUN 1C DEB, 30154 is space debris in SSO originally from a launch on Mon, 10 May 1999 UTC launched from the Taiyaun Space Center, China (TSC). Fengyun 1C debris stems from the Chinese weather satellite Fengyun-1C, which was intentionally destroyed by a Chinese anti-satellite missile in 2007. This event dramatically increased the amount of space debris, with thousands of trackable fragments posing hazards to satellites and human spaceflight. The Fengyun 1C debris cloud has become a focal point in discussions about space sustainability and the need for international regulations to prevent the creation of new debris.

Loading next visibility...
Identifier
30154, 1999-025TK
Orbit
SSO
Country
Flag of CNCN / PRC
Related business
Manufacturer
Unknown
Mission
Spacecraft
Bus & Motor
Unknown
Mass
Unknown
Launch date (UTC)
1999-05-10 (27 years ago)
Launch vehicle
Unknown
Launch site
Taiyaun Space Center, China (TSC)
Object type
Payload
Rocket body
Debris
Shape & HBR
Unknown shape, 0.1 m
Radar Cross Section
Small (<0.1 m²)

Expand to show TLE details & history
Last TLE update: 2 days ago

TLE from 2 days ago
0 FENGYUN 1C DEB
1 30154U 99025TK  26070.05546426  .00001769  00000-0  13786-2 0  9995
2 30154  98.4408 108.2827 0178573 316.3744  71.3359 13.86343270962085
Epoch: 2026-03-11T01:19Z
TLE epoch observation values (Epoch: 2026-03-11T01:19:52.112Z)
Latitude
29.35816°
Longitude
-85.17269°
Altitude
905.371 km
Speed
7.422 km/s
True Right ascension
06h 54m 04s
True Declination
29° 12' 52"
Sunlit
Object was in daylight at epoch
Visualization orbit readout
Latitude
Unknown
Longitude
Unknown
Altitude
Unknown
Speed
Unknown
Apparent Right ascension
Unknown
Apparent Declination
Unknown
Sunlit
N/A
Visualization observer readout
Local Sidereal Time
00:19:12
Azimuth
Unknown
Elevation
Unknown
Doppler factor
Unknown
Orbital elements
Apogee altitude
1,069.322 km
Perigee altitude
808.005 km
Semi-major axis
7,316.801 km
Eccentricity
0.01786
Inclination
98.4408°
RAAN
108.2827°
Arg. of periapsis
316.3744°
True anomaly
73.28815°
Mean anomaly
71.3359°
Eccentric anomaly
72.31067°
Mean motion
3.46786 °/min
Orbital period
103.81 mins
BSTAR
0.0013786
Loading maneuver chart data...
Computing Atmospheric mass density...
Loading historical data...
Loading historical data...
Loading historical data...
Loading historical data...
Loading historical data...
Loading historical data...
Loading historical data...

Documentation

Showing up to 5 results
|